This is the latest recevied weather packets stored in our database for station/object W8AN. If no packets are shown the sender has not sent any weather packets the latest 10 day(s).
| Time | Temp. | Humidity | Pressure | Rain* | Wind** | Luminosity | Snow |
|---|---|---|---|---|---|---|---|
| 1777779844 | 5° C | 68% | 4271.9 hPa | 0 mm | - | 0 W/m² | - |
| 1777779541 | 5° C | 66% | 4271.7 hPa | 0 mm | - | 0 W/m² | - |
| 1777779238 | 5.56° C | 66% | 4271.8 hPa | 0 mm | - | 0 W/m² | - |
| 1777778936 | 5.56° C | 65% | 4271.7 hPa | 0 mm | - | 0 W/m² | - |
| 1777778634 | 5.56° C | 66% | 4272 hPa | 0 mm | - | 0 W/m² | - |
| 1777778332 | 5.56° C | 65% | 4272 hPa | 0 mm | - | 0 W/m² | - |
| 1777778029 | 5.56° C | 64% | 4271.7 hPa | 0 mm | - | 0 W/m² | - |
| 1777777725 | 5.56° C | 65% | 4271.6 hPa | 0 mm | - | 0 W/m² | - |
| 1777777422 | 5.56° C | 65% | 4271.9 hPa | 0 mm | - | 0 W/m² | - |
| 1777777118 | 5.56° C | 65% | 4271.7 hPa | 0 mm | - | 0 W/m² | - |
| 1777776816 | 6.11° C | 64% | 4271.7 hPa | 0 mm | - | 0 W/m² | - |
| 1777776513 | 6.11° C | 65% | 4271.9 hPa | 0 mm | - | 0 W/m² | - |
| 1777776210 | 6.11° C | 62% | 4271.8 hPa | 0 mm | - | 0 W/m² | - |
| 1777775907 | 6.11° C | 65% | 4272 hPa | 0 mm | - | 0 W/m² | - |
| 1777775604 | 6.11° C | 65% | 4271.9 hPa | 0 mm | - | 0 W/m² | - |
| 1777775300 | 6.11° C | 63% | 4272 hPa | 0 mm | - | 0 W/m² | - |
| 1777774994 | 6.11° C | 65% | 4271.8 hPa | 0 mm | - | 0 W/m² | - |
| 1777774691 | 6.11° C | 66% | 4272 hPa | 0 mm | - | 0 W/m² | - |
| 1777774388 | 6.11° C | 64% | 4271.6 hPa | 0 mm | - | 0 W/m² | - |
| 1777774085 | 6.11° C | 65% | 4272 hPa | 0 mm | - | 0 W/m² | - |
| 1777773783 | 6.11° C | 69% | 4272 hPa | 0 mm | - | 0 W/m² | - |
| 1777773479 | 6.11° C | 70% | 4271.7 hPa | 0 mm | - | 0 W/m² | - |
| 1777773176 | 6.11° C | 68% | 4271.7 hPa | 0 mm | - | 0 W/m² | - |
| 1777772871 | 6.67° C | 69% | 4271.7 hPa | 0 mm | - | 0 W/m² | - |
| 1777772570 | 6.67° C | 69% | 4271.6 hPa | 0 mm | - | 0 W/m² | - |
* Rain latest hour (hover to see other rain measurements)
** Current wind speed in m/s (hover to see current wind gust speed)